Location: Baptist Memorial Hospital
(34.4976°N, 89.0284°W)
Time: 10:13:18
(UTC+00:00)

SAR-Lupe-4 - Pass Details

Date: 29 October 2020
Orbit: 481 x 484 km, 98.2° (Epoch: 22 November)

Event Time Altitude Azimuth Distance (km) Brightness Sun altitude
Rises 23:24:40 0° 20° (NNE) 2,546 6.9 -4.8°
Reaches altitude 10° 23:26:48 10° 27° (NNE) 1,663 5.9 -5.2°
Maximum altitude 23:30:13 42° 100° (E) 693 3.9 -5.9°
Drops below altitude 10° 23:33:36 10° 173° (S) 1,652 6.3 -6.5°
Sets 23:35:43 0° 180° (S) 2,527 7.4 -7.0°
